Cincinnati Municipal Airport Lunken Field Cincinnati US
ICAO: KLUK
IATA: LUK
Category: Medium
Scheduled Services: No

Elevation: 483 ft
TransAlt. 18000 ft.

Airport Communications:
APP/DEP:121
ATIS:120.25
CLNC DEL:121.9
CTAF:118.7
GND:121.9
DAYTON RDO:122.4
LUNKEN TWR:118.7
UNICOM:122.95

KLUK Zoom In..

If you have problems with the map follow the link
https://www.worldairports.se/pages/airport.php?
ICAO=KLUK

Runways:

(A) RW 03L length 3802 ft width 100 ft
---- / hdg 27

(B) RW 03R length 6101 ft width 150 ft
---- / hdg 25

(C) RW 07 length 5128 ft width 100 ft
---- / hdg 66

(D) RW 21L length 6101 ft width 150 ft
ILS 110.90 / hdg 205

(E) RW 21R length 3802 ft width 100 ft
---- / hdg 207

(F) RW 25 length 5128 ft width 100 ft
---- / hdg 246

Location; KLUK
Day. 06 / Time. 12.53 Zulu
* Altimeter: 30.08
* Temperature: 04° c. 39.2°f.
* Wind from: 000° Speed 00 kn.
Dewpoint: 02° c.
Visibility: 10 Statute Miles.
Clouds: Overcast 6000 ft.
Conditions: Light Rain.

KLUK 061253Z 00000KT 10SM -RA OVC060 04/02 A3008 RMK AO2 RAB04 SLP187 P0000 T00440022


Wind - Calm.

 
 
jpsmedia worldairports.se 2019   terms of use